Change the Weather History Date:

Friday, October 12, 2012

  Actual Average Record
Temperature  
Mean Temperature 44 °F -  
Max Temperature 53 °F 62 °F 79 °F (1962)
Min Temperature 33 °F 39 °F 24 °F (1996)
Degree Days  
Heating Degree Days 22    
Moisture  
Dew Point 33 °F    
Average Humidity 66    
Maximum Humidity 87    
Minimum Humidity 39    
Precipitation  
Precipitation 0.04 in - - ()
Sea Level Pressure  
Sea Level Pressure 30.14 in    
Wind  
Wind Speed 7 mph (West)    
Max Wind Speed 15 mph    
Max Gust Speed 25 mph    
Visibility 10 miles    
Events Rain    
Averages and records for this station are not official NWS values.
T = Trace of Precipitation, MM = Missing Value Source: NWS Daily Summary

Daily Weather History Graph

Daily Weather History Graph

Search for Another Location

Airport or City:

Trip Planner

Search our weather history database for the weather conditions in past years. The results will help you decide how hot, cold, wet, or windy it might be!

Date:

Astronomy

Oct. 12, 2012 Rise Set
Actual Time 6:55 AM EDT 6:07 PM EDT
Civil Twilight 6:26 AM EDT 6:35 PM EDT
Nautical Twilight 5:54 AM EDT 7:07 PM EDT
Astronomical Twilight 5:21 AM EDT 7:40 PM EDT
Moon 3:31 AM EDT (10/12) 4:17 PM EDT (10/12)
Length of Visible Light 12h 08m
Length of Day
11h 12m
Waning Crescent, 11% of the Moon is Illuminated
Oct 12
Waning Crescent
Oct 15
New
Oct 21
First Quarter
Oct 29
Full
Nov 6
Last Quarter

Hourly Weather History & Observations

Time (EDT) Temp. Windchill Dew Point Humidity Pressure Visibility Wind Dir Wind Speed Gust Speed Precip Events Conditions
12:56 AM 44.6 °F 43.1 °F 35.6 °F 71% 30.08 in 10.0 mi SW 3.5 mph - N/A   Clear
1:56 AM 43.0 °F 38.2 °F 36.0 °F 76% 30.10 in 10.0 mi SSW 8.1 mph - N/A   Clear
2:56 AM 43.0 °F 40.3 °F 35.1 °F 74% 30.08 in 10.0 mi SW 4.6 mph - N/A   Clear
3:56 AM 42.1 °F 40.2 °F 35.1 °F 76% 30.06 in 10.0 mi SSW 3.5 mph - N/A   Clear
4:56 AM 42.1 °F 38.4 °F 34.0 °F 73% 30.04 in 10.0 mi SW 5.8 mph - N/A   Clear
5:56 AM 44.1 °F 40.1 °F 35.1 °F 71% 30.03 in 10.0 mi SW 6.9 mph - N/A   Clear
6:56 AM 41.0 °F 38.0 °F 34.0 °F 76% 30.04 in 10.0 mi WSW 4.6 mph - N/A   Scattered Clouds
7:56 AM 44.1 °F 40.1 °F 36.0 °F 73% 30.05 in 10.0 mi WSW 6.9 mph - N/A   Clear
8:56 AM 48.9 °F - 37.0 °F 64% 30.07 in 10.0 mi West 9.2 mph - N/A   Clear
9:56 AM 48.9 °F - 37.0 °F 64% 30.09 in 10.0 mi WNW 15.0 mph 20.7 mph N/A   Overcast
10:56 AM 45.0 °F 40.6 °F 39.9 °F 82% 30.12 in 9.0 mi West 8.1 mph - 0.02 in Rain Light Rain
11:56 AM 46.0 °F 44.8 °F 41.0 °F 83% 30.12 in 10.0 mi West 3.5 mph - 0.02 in   Overcast
12:03 PM 46.4 °F - 42.8 °F 87% 30.08 in 10.0 mi Calm Calm - N/A   Overcast
12:56 PM 46.0 °F 43.1 °F 41.0 °F 83% 30.12 in 10.0 mi WNW 5.8 mph - 0.00 in   Overcast
1:03 PM 46.4 °F 42.9 °F 39.2 °F 76% 30.07 in 10.0 mi West 6.9 mph - N/A   Overcast
1:12 PM 46.4 °F 42.9 °F 39.2 °F 76% 30.08 in 10.0 mi West 6.9 mph - N/A   Overcast
1:56 PM 48.0 °F - 39.0 °F 71% 30.13 in 10.0 mi WNW 10.4 mph - N/A   Overcast
2:56 PM 51.8 °F - 35.6 °F 54% 30.08 in 10.0 mi NW 11.5 mph 20.7 mph N/A   Mostly Cloudy
3:56 PM 51.8 °F - 28.4 °F 41% 30.11 in 10.0 mi NW 13.8 mph 25.3 mph N/A   Partly Cloudy
4:56 PM 50.0 °F - 26.1 °F 39% 30.17 in 10.0 mi NNW 13.8 mph - N/A   Scattered Clouds
5:56 PM 46.0 °F 40.2 °F 24.1 °F 42% 30.20 in 10.0 mi NW 12.7 mph 20.7 mph N/A   Clear
6:56 PM 42.8 °F 38.6 °F 24.8 °F 49% 30.21 in 10.0 mi NW 6.9 mph - N/A   Clear
7:56 PM 42.1 °F 37.1 °F 24.1 °F 49% 30.30 in 10.0 mi NNW 8.1 mph - N/A   Partly Cloudy
8:56 PM 41.0 °F 33.1 °F 24.8 °F 53% 30.30 in 10.0 mi NW 15.0 mph 20.7 mph N/A   Clear
9:56 PM 36.0 °F 31.1 °F 23.0 °F 59% 30.37 in 10.0 mi Variable 5.8 mph - N/A   Clear
10:56 PM 36.0 °F 29.6 °F 21.9 °F 57% 30.40 in 10.0 mi WNW 8.1 mph - N/A   Clear
11:56 PM 33.8 °F - 24.8 °F 70% 30.36 in 10.0 mi Calm Calm - N/A   Clear